Regional Weather Roundup
Issued by NWS

Home | Current Version | Previous Version | Graphics & Text | Print | Product List | Glossary On
Versions: 1 2 3 4 5 6 7 8 9 10 11 12 13 14 15 16 17 18 19 20 21 22 23 24 25 26 27 28 29 30 31 32 33 34 35 36 37 38 39 40 41 42 43 44 45 46 47 48 49 50
628
ASUS43 KMPX 281910
RWRMN
WEATHER ROUNDUP FOR MINNESOTA
NATIONAL WEATHER SERVICE TWIN CITIES/CHANHASSEN MN
200 PM CDT SAT MAY 28 2016


NOTE: "FAIR" INDICATES FEW OR NO CLOUDS BELOW 12,000 FEET WITH NO
SIGNIFICANT WEATHER AND/OR OBSTRUCTIONS TO VISIBILITY. N/A MEANS
CURRENT SKY AND/OR WEATHER CONDITIONS ARE NOT AVAILABLE.

MNZ060>063-068>070-282000-
   Twin Cities Metro

CITY           SKY/WX    TMP DP  RH WIND       PRES   REMARKS
TWIN CITIES    CLOUDY    67  60  78 NW9       29.76F
ST PAUL        CLOUDY    67  61  81 NW7       29.76F
CRYSTAL        CLOUDY    65  58  78 NW8       29.76S
BLAINE         CLOUDY    66  63  88 W7        29.77F
EDEN PRAIRIE   LGT RAIN  65  61  87 N7        29.75F FOG
SOUTH ST PAUL  PTSUNNY   68  61  77 W5        29.76S
LAKE ELMO      RAIN      66  63  88 CALM      29.78S
$$
MNZ001>005-007-008-013>017-022>024-027-028-282000-
   Northwest Minnesota

CITY           SKY/WX    TMP DP  RH WIND       PRES   REMARKS
BEMIDJI        CLOUDY    60  56  85 N7        29.80S
HALLOCK        PTSUNNY   72  55  56 NE6       29.83F
ROSEAU         PTSUNNY   66  59  77 NE10      29.84F
WARROAD        LGT RAIN  63  59  88 NE9       29.85F
THIEF RVR FALL CLOUDY    66  54  63 N12       29.84S
CROOKSTON      CLOUDY    68  54  60 NE10      29.83S
FOSSTON        CLOUDY    61  57  88 NE7       29.82F
DETROIT LAKES  CLOUDY    63  55  77 N5        29.81S
MOORHEAD       CLOUDY    66  57  72 N12       29.80F
PARK RAPIDS    CLOUDY    62  55  77 N6        29.79S
MAHNOMEN       CLOUDY    60  56  87 NE12      29.80F
$$
MNZ006-009>011-018-025>026-282000-
   North Central Minnesota

CITY           SKY/WX    TMP DP  RH WIND       PRES   REMARKS
BAUDETTE       CLOUDY    62  57  83 NE7       29.83S
FLAG ISLAND    CLOUDY    63  55  77 NE16      29.86S
INTL FALLS     CLOUDY    61  57  88 NE8       29.81F FOG
WASKISH        CLOUDY    61  57  88 NE10      29.81F
BIG FORK       LGT RAIN  61  57  88 NE3       29.80R
LONGVILLE      CLOUDY    61  57  88 CALM      29.79S FOG
GRAND RAPIDS   CLOUDY    61  57  87 CALM      29.80S
CRANE LAKE     CLOUDY    57  57 100 NE3       29.82S
ORR            CLOUDY    59  55  88 CALM      29.77S
COOK           CLOUDY    61  57  88 NE3       29.80S FOG
WALKER         DRIZZLE   58  57  95 N3        29.79S
$$
MNZ012-019>021-037-282000-
   Northeast Minnesota

CITY           SKY/WX    TMP DP  RH WIND       PRES   REMARKS
DULUTH         CLOUDY    56  52  86 N5        29.78S
ELY            DRIZZLE   59  57  94 CALM      29.80R
HIBBING        CLOUDY    59  57  93 SE6       29.79S
EVELETH        CLOUDY    59  59 100 SE3       29.80S FOG
DULUTH HARBOR  CLOUDY    48  46  93 E6        29.80F
TWO HARBORS    CLOUDY    61  55  82 NE7       29.76F
SILVER BAY     FOG       55  55 100 NE7       29.77F VSB 3/4
GRAND MARAIS     N/A     49  46  90 NE6       29.78F
G MARAIS ARPRT CLOUDY    61  57  88 NE6       29.81F
$$
MNZ029>031-032-039>041-046>048-054>057-064-282000-
   West Central Minnesota

CITY           SKY/WX    TMP DP  RH WIND       PRES   REMARKS
FERGUS FALLS   CLOUDY    64  54  68 NE7       29.76S
WHEATON        CLOUDY    70  55  60 NW7       29.81S
MORRIS         DRIZZLE   66  59  77 CALM      29.79S
ALEXANDRIA     CLOUDY    63  55  75 N3        29.81S
ELBOW LAKE     CLOUDY    64  56  73 E3        29.80R
WADENA         CLOUDY    61  54  77 N5        29.79F
GLENWOOD       LGT RAIN  63  57  82 CALM      29.81S
APPLETON       LGT RAIN  64  57  77 CALM      29.80S
ORTONVILLE     RAIN      64  55  72 N3        29.80S
MADISON        RAIN      63  59  88 N6        29.80F
WILLMAR        RAIN      61  61 100 N5        29.80F
$$
MNZ033>034-036-042>043-049>051-058-059-282000-
   Central Minnesota

CITY           SKY/WX    TMP DP  RH WIND       PRES   REMARKS
ST CLOUD       LGT RAIN  60  58  92 CALM      29.79S
SAUK CENTRE    RAIN      61  56  83 CALM      29.81R
PAYNESVILLE    RAIN      60  59  96 CALM      29.80F
AITKIN         CLOUDY    63  55  77 S3        29.78S
PINE RIVER     CLOUDY    61  55  82 CALM      29.82F
BRAINERD       CLOUDY    60  56  86 CALM      29.80S
STAPLES        CLOUDY    61  54  77 CALM      29.80S
LONG PRAIRIE   CLOUDY    59  54  82 CALM      29.81S
LITTLE FALLS   RAIN      61  55  82 CALM      29.80R
LITCHFIELD     LGT RAIN  61  61 100 N3        29.79F
BUFFALO        LGT RAIN  61  57  88 NW5       29.79F
MAPLE LAKE     LGT RAIN  62  60  94 N3        29.80F
HUTCHINSON     PTSUNNY   64  62  90 N5        29.78F
$$
MNZ037-044-045-052-053-282000-
   East Central Minnesota

CITY           SKY/WX    TMP DP  RH WIND       PRES   REMARKS
PRINCETON      LGT RAIN  64  57  77 W5        29.79S
MORA           CLOUDY    61  54  77 NW6       29.81S
CAMBRIDGE      LGT RAIN  66  55  68 NW3       29.77S
RUSH CITY      CLOUDY    64  59  81 CALM      29.78S
MOOSE LAKE     LGT RAIN  59  54  82 CALM      29.77S
HINCKLEY       CLOUDY    63  59  88 W6        29.79R
CLOQUET        CLOUDY    55  54  94 CALM      29.78F
MCGREGOR       CLOUDY    61  55  82 CALM      29.79S
$$
MNZ071>073-080-081-089-090-097-098-282000-
   Southwest Minnesota

CITY           SKY/WX    TMP DP  RH WIND       PRES   REMARKS
MONTEVIDEO     LGT RAIN  63  61  94 NE6       29.81F
GRANITE FALLS  LGT RAIN  63  60  91 N5        29.81S
CANBY          LGT RAIN  64  62  93 N5        29.82S
MARSHALL       RAIN      61  57  88 N7        29.79F
REDWOOD FALLS  CLOUDY    62  59  90 N5        29.78R
OLIVIA         CLOUDY    63  61  94 CALM      29.79R
PIPESTONE      CLOUDY    64  59  82 NE8       29.78F
WINDOM         CLOUDY    64  61  88 CALM      29.78S
WORTHINGTON    CLOUDY    68  61  78 N6        29.77F
JACKSON        CLOUDY    64  59  82 N5        29.78S
TRACY          CLOUDY    62  61  97 N7        29.79F
SLAYTON        CLOUDY    62  61  94 N10       29.80S
$$
MNZ065>067-074>077-082>085-091>093-282000-
   South Central Minnesota

CITY           SKY/WX    TMP DP  RH WIND       PRES   REMARKS
MANKATO        CLOUDY    64  61  88 NE3       29.76S
NEW ULM        LGT RAIN  63  63 100 N7        29.75F
ST JAMES       CLOUDY    61  57  88 N7        29.77F
FAIRMONT       CLOUDY    68  63  83 N7        29.76S
GLENCOE        LGT RAIN  63  62  99 N6        29.76F
FARIBAULT      CLOUDY    70  61  73 SE9       29.75S
OWATONNA       DRIZZLE   68  63  83 S9        29.76S
WASECA         CLOUDY    64  59  82 CALM      29.77F
ALBERT LEA     CLOUDY    70  63  78 S6        29.76F
$$
MNZ078>079-086>088-094>096-282000-
   Southeast Minnesota

CITY           SKY/WX    TMP DP  RH WIND       PRES   REMARKS
ROCHESTER      PTSUNNY   71  64  78 S17       29.78S
RED WING       CLOUDY    70  64  83 SE3       29.74F
STANTON        CLOUDY    72  61  68 SE3       29.73F
DODGE CENTER   CLOUDY    72  63  73 S12G18    29.77S
WINONA         MOSUNNY   73  63  68 S7        29.76F
AUSTIN         PTSUNNY   72  63  73 S9        29.77F
PRESTON        MOSUNNY   73  62  69 S16       29.79S
$$
ABBREVIATIONS USED IN REMARKS
   TC - TEMPERATURES IN CELSIUS
  WCI - WIND CHILL INDEX
   HX - HEAT INDEX
  VSB - VISIBILITY
$$




USA.gov is the U.S. government's official web portal to all federal, state and local government web resources and services.